Location: Bucquoy
(50.1391°N, 2.7097°E)
Time: 12:58:46
(UTC+00:00)

Cosmos 1943 Rocket - Pass Details

Date: 06 May 2021
Orbit: 814 x 842 km, 71.0° (Epoch: 22 June)

Event Time Altitude Azimuth Distance (km) Brightness Sun altitude
Exits shadow 00:09:21 55° 195° (SSW) 1,000 2.2 -23.1°
Maximum altitude 00:10:38 82° 117° (ESE) 850 2.1 -23.1°
Drops below altitude 10° 00:16:16 10° 31° (NNE) 2,448 5.5 -23.0°
Sets 00:18:42 0° 30° (NNE) 3,381 6.5 -22.9°
